Location: Unspecified
(0.0000°N, 0.0000°E)
Time: 20:48:43
(UTC+00:00)

Envisat - Visible Passes

Search period start: 14 July 2020 00:00
Search period end: 24 July 2020 00:00
Orbit: 764 x 766 km, 98.1° (Epoch: 14 July)

Date Brightness Start Highest point End Pass type
(mag) Time Alt. Az. Time Alt. Az. Time Alt. Az.
14 Jul 3.8 05:34:58 10° NNE 05:39:55 54° ESE 05:44:52 10° S visible
15 Jul 5.6 04:59:42 10° ENE 05:03:14 19° ESE 05:06:47 10° SSE visible
16 Jul 5.1 18:32:04 10° SSW 18:36:23 29° WSW 18:40:43 10° NW visible
17 Jul 4.4 05:23:54 10° NNE 05:28:36 39° ESE 05:33:19 10° S visible
18 Jul 5.8 04:49:23 10° ENE 04:51:57 14° ESE 04:54:30 10° SE visible
18 Jul 5.8 18:59:16 10° SW 19:01:45 14° WSW 19:04:15 10° WNW visible
20 Jul 5.0 05:12:57 10° NE 05:17:18 29° ESE 05:21:39 10° SSE visible
21 Jul 5.7 18:46:56 10° SSW 18:50:27 19° WSW 18:53:57 10° WNW visible
22 Jul 3.6 05:37:41 10° NNE 05:42:40 61° ESE 05:47:41 10° S visible
23 Jul 5.5 05:02:12 10° NE 05:06:00 21° ESE 05:09:48 10° SSE visible
